Terug naar catalogus

RESURS DK-1

ActiefWetenschapVLEO
NORAD 29228·PAYLOAD·🇷🇺 Russia

Gelanceerd Jun 15, 2006 vanaf Baikonur Cosmodrome

Loading…

Volgende Passages (komende 24 uur)

TLE

VersSource: Space-Track

Epoch: Sep 14, 2026, 14:18 UTC

1 29228U 06021A   26257.59620716  .00001512  00000-0  90261-4 0  9991
2 29228  69.9301 108.0534 0005425 214.4413 145.6403 15.13511882116106

Volg RESURS DK-1 in realtime met AllMySat

Download on the App Store